Regional Weather Roundup
Issued by NWS Burlington, VT

Home | Current Version | Previous Version | Text Only | Print | Product List | Glossary On
Versions: 1 2 3 4 5 6 7 8 9 10 11 12 13 14 15 16 17 18 19 20 21 22 23 24 25 26 27
000
ASUS41 KBTV 242310
RWRBTV
VERMONT REGIONAL WEATHER ROUNDUP
NATIONAL WEATHER SERVICE BURLINGTON VT
700 PM EDT FRI OCT 24 2014

NOTE: "FAIR" INDICATES FEW OR NO CLOUDS BELOW 12,000 FEET WITH NO
SIGNIFICANT WEATHER AND/OR OBSTRUCTIONS TO VISIBILITY.

* THESE REPORTS ARE NOT UNDER NWS QUALITY CONTROL AND/OR DO NOT
  REPORT WEATHER SUCH AS PRECIPITATION AND FOG.

VTZ001>019-250000-
_____VERMONT_____


CITY           SKY/WX    TMP DP  RH WIND       PRES   REMARKS
BURLINGTON     CLOUDY    48  42  80 CALM      29.85R
MONTPELIER     CLOUDY    42  40  92 NW7       29.85R
MORRISVILLE    CLOUDY    45  39  79 N6        29.84R
ST. JOHNSBURY*   N/A     45  40  82 MISG      29.78R
LYNDONVILLE*   CLOUDY    43  38  82 W6        29.80R
MIDDLEBURY*    CLOUDY    45  45  99 N5        29.84R
RUTLAND*       CLOUDY    45  39  81 NW12G20   29.82R
SPRINGFIELD    CLOUDY    47  40  76 CALM      29.78R
HIGHGATE*      CLOUDY    45  42  88 CALM      29.84S
NEWPORT*       CLOUDY    43  40  88 NW7       29.82R
BENNINGTON     CLOUDY    45  42  89 NW7       29.82R
SUTTON*          N/A     41 N/A N/A MISG        N/A

_____LAKE CHAMPLAIN_____


CITY           SKY/WX    TMP DP  RH WIND       PRES   REMARKS
COLCHESTER RF*   N/A     52  41  66 NW10        N/A
DIAMOND ISL*     N/A     50  39  66 NW14        N/A

$$

NYZ007-026>031-035-052-083-250000-
_____NORTHERN NEW YORK_____


CITY           SKY/WX    TMP DP  RH WIND       PRES   REMARKS
PLATTSBURGH    CLOUDY    49  41  74 W5        29.84S
SARANAC LAKE   CLOUDY    42  41  96 CALM      29.84S
MASSENA        MOCLDY    50  43  77 S5        29.85S
OGDENSBURG*    CLEAR     46  43  87 SW3       29.85R
POTSDAM*       CLOUDY    50  46  87 CALM      29.86R
WATERTOWN      CLEAR     51  44  77 SW6       29.88S
FT DRUM        CLEAR     50  45  82 SW8       29.87R
ALBANY         CLOUDY    47  44  90 NE8       29.84R
GLENS FALLS    CLOUDY    46  43  89 CALM      29.85R

$$
NHZ002-005-011-250000-
_____NEW HAMPSHIRE_____


CITY           SKY/WX    TMP DP  RH WIND       PRES   REMARKS
LEBANON        CLOUDY    48  39  71 N12       29.78R
KEENE          CLOUDY    48  36  61 N7        29.76R
MT WASHINGTON  FOG       34  34 100 N30         N/A  VSB 1/16
PLYMOUTH       CLOUDY    46  44  93 W10G17    29.74R
WHITEFIELD     CLOUDY    44  41  89 S3        29.78R

$$

_____REGIONAL QUEBEC LOCATIONS_____


CITY           SKY/WX    TMP DP  RH WIND       PRES   REMARKS
MONTREAL       MOCLDY    52  41  66 SW10      29.83S
QUEBEC CITY    MOCLDY    45  34  65 CALM      29.81S

_____REGIONAL ONTARIO LOCATIONS_____


CITY           SKY/WX    TMP DP  RH WIND       PRES   REMARKS
OTTAWA         PTCLDY    52  39  62 SW6       29.84S

______KEY______
VSB  - VISIBILITY IN MILES
WCI  - WIND CHILL INDEX
HX   - HEAT INDEX
$$
NNNN



USA.gov is the U.S. government's official web portal to all federal, state and local government web resources and services.